Weather History for KMYF - November, 2013

Change the Weather History Date:

Thursday, November 7, 2013

  Actual Average (KSAN) Record (KSAN)
Temperature  
Mean Temperature 68 °F 63 °F  
Max Temperature 84 °F 71 °F 89 °F (1956)
Min Temperature 51 °F 56 °F 46 °F (1925)
Degree Days  
Heating Degree Days 0 3  
Month to date heating degree days 15  
Since 1 July heating degree days 36  
Cooling Degree Days 2 1  
Month to date cooling degree days 7  
Year to date cooling degree days 714  
Growing Degree Days 18 (Base 50)    
Moisture  
Dew Point 19 °F    
Average Humidity 20    
Maximum Humidity 44    
Minimum Humidity 6    
Precipitation  
Precipitation 0.00 in 0.02 in 0.77 in (1931)
Month to date precipitation 0.17  
Year to date precipitation 7.97  
Since 1 July precipitation 0.94  
Snow  
Snow 0.00 in - - ()
Month to date snowfall  
Year to date snowfall  
Since 1 July snowfall  
Snow Depth -    
Sea Level Pressure  
Sea Level Pressure 30.04 in    
Wind  
Wind Speed 2 mph (North)    
Max Wind Speed 10 mph    
Max Gust Speed -    
Visibility 10 miles    
Events      
T = Trace of Precipitation, MM = Missing Value Source: NWS Daily Summary

Daily Weather History Graph

Daily Weather History Graph

Search for Another Location

Airport or City:

Trip Planner

Search our weather history database for the weather conditions in past years. The results will help you decide how hot, cold, wet, or windy it might be!

Date:

Astronomy

Nov. 07, 2013 Rise Set
Actual Time 6:11 AM PST 4:52 PM PST
Civil Twilight 5:46 AM PST 5:18 PM PST
Nautical Twilight 5:16 AM PST 5:47 PM PST
Astronomical Twilight 4:47 AM PST 6:16 PM PST
Moon 10:21 AM PST (11/7) 9:10 PM PST (11/7)
Length of Visible Light 11h 31m
Length of Day
10h 40m
Waxing Crescent, 24% of the Moon is Illuminated
Nov 7
Waxing Crescent
Nov 9
First Quarter
Nov 17
Full
Nov 25
Last Quarter
Dec 2
New

Hourly Weather History & Observations

Time (PST) Temp. Dew Point Humidity Pressure Visibility Wind Dir Wind Speed Gust Speed Precip Events Conditions
12:53 AM 53.1 °F 23.0 °F 31% 30.07 in 10.0 mi Calm Calm - N/A   Clear
1:53 AM 54.0 °F 24.1 °F 31% 30.07 in 10.0 mi Calm Calm - N/A   Clear
2:53 AM 53.1 °F 21.9 °F 30% 30.07 in 10.0 mi NE 3.5 mph - N/A   Clear
3:53 AM 54.0 °F 18.0 °F 24% 30.07 in 10.0 mi NNE 3.5 mph - N/A   Clear
4:53 AM 54.0 °F 15.1 °F 22% 30.07 in 10.0 mi Calm Calm - N/A   Clear
5:53 AM 51.1 °F 18.0 °F 27% 30.08 in 10.0 mi Calm Calm - N/A   Clear
6:53 AM 55.9 °F 18.0 °F 23% 30.09 in 10.0 mi Calm Calm - N/A   Clear
7:53 AM 70.0 °F 16.0 °F 13% 30.09 in 10.0 mi Calm Calm - N/A   Clear
8:53 AM 77.0 °F 9.0 °F 7% 30.09 in 10.0 mi Calm Calm - N/A   Clear
9:53 AM 81.0 °F 9.0 °F 6% 30.09 in 10.0 mi Calm Calm - N/A   Clear
10:53 AM 82.9 °F 7.0 °F 6% 30.07 in 10.0 mi Calm Calm - N/A   Clear
11:53 AM 84.9 °F 16.0 °F 8% 30.04 in 10.0 mi WNW 5.8 mph - N/A   Clear
12:53 PM 82.9 °F 7.0 °F 6% 30.01 in 10.0 mi WNW 10.4 mph - N/A   Clear
1:53 PM 80.1 °F 8.1 °F 6% 30.00 in 10.0 mi NW 9.2 mph - N/A   Clear
2:53 PM 80.1 °F 9.0 °F 7% 29.99 in 10.0 mi NW 10.4 mph - N/A   Clear
3:53 PM 75.9 °F 14.0 °F 10% 30.00 in 10.0 mi NW 9.2 mph - N/A   Clear
4:53 PM 72.0 °F 25.0 °F 17% 30.00 in 10.0 mi NNW 5.8 mph - N/A   Clear
5:53 PM 69.1 °F 25.0 °F 19% 30.01 in 10.0 mi Calm Calm - N/A   Clear
6:53 PM 64.9 °F 27.0 °F 24% 30.02 in 10.0 mi Calm Calm - N/A   Clear
7:53 PM 63.0 °F 27.0 °F 26% 30.02 in 10.0 mi Calm Calm - N/A   Clear
8:53 PM 61.0 °F 30.9 °F 32% 30.02 in 10.0 mi SE 3.5 mph - N/A   Clear
9:53 PM 59.0 °F 37.0 °F 44% 30.01 in 10.0 mi Calm Calm - N/A   Clear
10:53 PM 57.0 °F 28.9 °F 34% 30.01 in 10.0 mi ESE 4.6 mph - N/A   Clear
11:53 PM 57.0 °F 25.0 °F 29% 30.01 in 10.0 mi East 3.5 mph - N/A   Clear